Date String (YYYY-MM-DD hh:mm:ss) UTC,Instrument flags,absolute air pressure of the measurement (hPa),sample flow rate (lpm),inlet stack bypass flow (lpm),air temperature of the measurement (°C),ambient temperature measured by the external sensor (°C),aerosol sample conditioner tube jacket temperature (°C),OPC LED temperature (°C),internal box temperature (°C),relative humidity of the measurement (%),span deviation,mass concentration of particles derived from Lorenz-Mie calculation of OPC scattering (μg/m³),mass concentration of particles derived from Lorenz-Mie calculation of OPC scattering (μg/m³),mass concentration of particles derived from Lorenz-Mie calculation of OPC scattering (μg/m³)
DateTimeUTC,F1_M11,P_M11,Q1_M11,Q2_M11,T1_M11,T2_M11,T3_M11,T4_M11,T5_M11,U1_M11,ZSPAN_M11,X2_M11,X0_M11,X1_M11
2023-08-01 13:00:00,SystemResetWarning,0835.3,5.00,000.00,031.0,027.0,000.0,039.0,031.3,34.0,0000.0,0003.36,0007.17,0002.45
2023-08-01 13:01:00,SystemResetWarning,0835.2,4.99,000.00,031.0,027.3,000.0,039.0,031.4,33.5,0000.0,0003.40,0007.25,0002.50
2023-08-01 13:02:00,SystemResetWarning,0835.3,5.00,000.00,031.0,027.5,000.0,039.0,031.4,33.5,0000.0,0003.42,0007.26,0002.54
2023-08-01 13:03:00,SystemResetWarning,0835.3,5.01,000.00,031.0,027.7,000.0,039.0,031.4,33.6,0000.0,0003.41,0007.29,0002.56
2023-08-01 13:04:00,SystemResetWarning,0835.3,5.01,000.00,031.0,027.9,000.0,039.1,031.5,33.9,0000.0,0003.39,0006.73,0002.55
2023-08-01 13:05:00,SystemResetWarning,0835.3,5.00,000.00,031.0,028.1,000.0,039.1,031.5,34.0,0000.0,0003.36,0006.19,0002.54
2023-08-01 13:06:00,SystemResetWarning,0835.2,5.00,000.00,031.0,028.2,000.0,039.1,031.5,34.1,0000.0,0003.34,0006.28,0002.52
2023-08-01 13:07:00,SystemResetWarning,0835.2,4.99,000.00,031.0,028.3,000.0,039.1,031.5,34.2,0000.0,0003.30,0006.78,0002.52
2023-08-01 13:08:00,SystemResetWarning,0835.3,4.99,000.00,031.0,028.3,000.0,039.1,031.6,34.2,0000.0,0003.29,0006.76,0002.52
2023-08-01 13:09:00,SystemResetWarning,0835.3,4.99,000.00,031.0,028.4,000.0,039.2,031.6,34.4,0000.0,0003.27,0006.71,0002.53
2023-08-01 13:10:00,SystemResetWarning,0835.3,5.00,000.00,031.0,028.5,000.0,039.2,031.7,34.5,0000.0,0003.29,0006.72,0002.56
2023-08-01 13:11:00,SystemResetWarning,0835.3,5.00,000.00,031.0,028.6,000.0,039.2,031.7,34.6,0000.0,0003.32,0006.88,0002.59
2023-08-01 13:12:00,SystemResetWarning,0835.4,5.00,000.00,031.0,028.6,000.0,039.2,031.7,34.8,0000.0,0003.33,0006.96,0002.62
2023-08-01 13:13:00,SystemResetWarning,0835.5,5.00,000.00,031.0,028.6,000.0,039.2,031.7,34.8,0000.0,0003.33,0006.97,0002.65
2023-08-01 13:14:00,SystemResetWarning,0835.5,4.99,000.00,031.0,027.7,000.0,039.1,031.7,34.8,0000.0,0003.32,0006.94,0002.68
2023-08-01 13:15:00,SystemResetWarning,0835.5,4.99,000.00,030.9,026.1,000.0,039.0,031.4,34.7,0000.0,0003.38,0007.18,0002.74
2023-08-01 13:16:00,SystemResetWarning,0835.4,5.01,000.00,030.8,025.7,000.0,038.9,031.2,35.2,0000.0,0003.42,0007.27,0002.80
2023-08-01 13:17:00,SystemResetWarning,0835.4,5.01,000.00,030.8,025.9,000.0,038.9,031.2,35.4,0000.0,0003.43,0007.30,0002.84
2023-08-01 13:18:00,SystemResetWarning,0835.3,5.01,000.00,031.0,026.2,000.0,038.9,031.3,35.1,0000.0,0003.47,0006.73,0002.87
2023-08-01 13:19:00,SystemResetWarning,0835.5,4.98,000.00,031.3,026.6,000.0,039.0,031.5,34.4,0000.0,0003.49,0006.68,0002.90
2023-08-01 13:20:00,SystemResetWarning,0835.5,5.00,000.00,031.5,027.0,000.0,039.0,031.5,34.1,0000.0,0003.51,0006.72,0002.91
2023-08-01 13:21:00,SystemResetWarning,0835.5,5.02,000.00,031.6,027.3,000.0,039.1,031.5,34.0,0000.0,0003.54,0007.15,0002.92
2023-08-01 13:22:00,SystemResetWarning,0835.5,4.99,000.00,031.6,027.5,000.0,039.1,031.6,33.9,0000.0,0003.55,0006.95,0002.93
2023-08-01 13:23:00,SystemResetWarning,0835.5,4.99,000.00,031.6,027.7,000.0,039.2,031.6,34.1,0000.0,0003.58,0006.73,0002.97
2023-08-01 13:24:00,SystemResetWarning,0835.5,5.00,000.00,031.6,027.9,000.0,039.3,031.6,34.0,0000.0,0003.61,0006.88,0002.99
2023-08-01 13:25:00,SystemResetWarning,0835.5,5.00,000.00,031.7,028.1,000.0,039.3,031.7,34.1,0000.0,0003.64,0007.09,0002.99
2023-08-01 13:26:00,SystemResetWarning,0835.5,5.00,000.00,031.7,028.2,000.0,039.4,031.7,34.1,0000.0,0003.65,0007.13,0002.99
2023-08-01 13:27:00,SystemResetWarning,0835.5,5.00,000.00,031.7,028.3,000.0,039.5,031.8,34.4,0000.0,0003.63,0007.11,0002.97
2023-08-01 13:28:00,SystemResetWarning,0835.5,5.00,000.00,031.6,028.4,000.0,039.5,031.8,34.7,0000.0,0003.60,0007.14,0002.95
2023-08-01 13:29:00,SystemResetWarning,0835.5,4.99,000.00,031.6,028.5,000.0,039.5,031.8,35.1,0000.0,0003.58,0007.52,0002.97
2023-08-01 13:30:00,SystemResetWarning,0835.5,5.02,000.00,031.7,028.6,000.0,039.6,031.9,35.1,0000.0,0003.60,0007.56,0003.00
2023-08-01 13:31:00,SystemResetWarning,0835.5,5.00,000.00,032.0,028.6,000.0,039.6,032.0,34.7,0000.0,0003.63,0007.63,0003.04
2023-08-01 13:32:00,SystemResetWarning,0835.5,4.99,000.00,032.1,028.6,000.0,039.6,032.1,34.5,0000.0,0003.66,0007.67,0003.08
2023-08-01 13:33:00,SystemResetWarning,0835.5,5.00,000.00,032.2,027.2,000.0,039.5,032.0,34.2,0000.0,0003.65,0007.58,0003.11
2023-08-01 13:34:00,SystemResetWarning,0835.5,5.00,000.00,032.3,026.1,000.0,039.5,031.8,34.3,0000.0,0003.62,0007.47,0003.12
2023-08-01 13:35:00,SystemResetWarning,0835.5,5.01,000.00,032.2,026.0,000.0,039.5,031.6,34.4,0000.0,0003.64,0007.50,0003.14
2023-08-01 13:36:00,SystemResetWarning,0835.4,5.01,000.00,032.0,026.2,000.0,039.6,031.5,35.0,0000.0,0003.69,0007.48,0003.17
2023-08-01 13:37:00,SystemResetWarning,0835.5,5.00,000.00,032.0,026.6,000.0,039.7,031.5,34.8,0000.0,0003.70,0007.60,0003.19
2023-08-01 13:38:00,SystemResetWarning,0835.5,4.99,000.00,032.0,027.0,000.0,039.7,031.6,34.8,0000.0,0003.73,0007.60,0003.20
2023-08-01 13:39:00,SystemResetWarning,0835.5,5.01,000.00,032.0,027.3,000.0,039.8,031.7,35.2,0000.0,0003.76,0008.14,0003.21
2023-08-01 13:40:00,SystemResetWarning,0835.5,5.02,000.00,032.1,027.5,000.0,039.8,031.8,35.3,0000.0,0003.79,0008.26,0003.22
2023-08-01 13:41:00,SystemResetWarning,0835.5,5.00,000.00,032.3,027.8,000.0,039.8,032.0,34.8,0000.0,0003.84,0008.32,0003.23
2023-08-01 13:42:00,SystemResetWarning,0835.5,4.98,000.00,032.5,028.0,000.0,039.9,032.0,34.1,0000.0,0003.86,0008.72,0003.23
2023-08-01 13:43:00,SystemResetWarning,0835.6,5.00,000.00,032.7,028.2,000.0,039.9,032.1,34.2,0000.0,0003.87,0008.85,0003.24
2023-08-01 13:44:00,SystemResetWarning,0835.6,5.02,000.00,032.7,028.3,000.0,040.0,032.1,34.0,0000.0,0003.91,0008.96,0003.26
2023-08-01 13:45:00,SystemResetWarning,0835.6,5.00,000.00,032.7,028.4,000.0,040.1,032.1,34.0,0000.0,0004.02,0009.22,0003.29
2023-08-01 13:46:00,SystemResetWarning,0835.6,4.99,000.00,032.7,028.5,000.0,040.1,032.1,33.8,0000.0,0004.09,0009.37,0003.33
2023-08-01 13:47:00,SystemResetWarning,0835.6,4.99,000.00,032.7,028.6,000.0,040.2,032.1,34.1,0000.0,0004.12,0009.37,0003.37
2023-08-01 13:48:00,SystemResetWarning,0835.6,4.99,000.00,032.7,028.7,000.0,040.3,032.1,34.4,0000.0,0004.17,0009.34,0003.44
2023-08-01 13:49:00,SystemResetWarning,0835.6,5.01,000.00,032.7,028.8,000.0,040.3,032.2,34.6,0000.0,0004.26,0009.40,0003.53
2023-08-01 13:50:00,SystemResetWarning,0835.8,5.00,000.00,032.6,028.8,000.0,040.4,032.2,34.8,0000.0,0004.39,0009.01,0003.65
2023-08-01 13:51:00,SystemResetWarning,0835.6,4.99,000.00,032.7,027.6,000.0,040.3,032.2,35.2,0000.0,0004.52,0008.70,0003.78
2023-08-01 13:52:00,SystemResetWarning,0835.6,5.03,000.00,032.8,025.9,000.0,040.1,032.0,34.9,0000.0,0004.64,0008.76,0003.93
2023-08-01 13:53:00,SystemResetWarning,0835.6,4.97,000.00,032.9,025.3,000.0,040.0,031.9,34.4,0000.0,0004.74,0008.40,0004.08
2023-08-01 13:54:00,SystemResetWarning,0835.6,5.02,000.00,032.8,025.4,000.0,040.1,031.6,34.6,0000.0,0004.86,0008.25,0004.22
2023-08-01 13:55:00,SystemResetWarning,0835.5,4.99,000.00,032.6,025.8,000.0,040.1,031.6,35.3,0000.0,0005.02,0008.36,0004.36
2023-08-01 13:56:00,SystemResetWarning,0835.5,5.02,000.00,032.8,026.2,000.0,040.2,031.7,35.2,0000.0,0005.13,0008.46,0004.48
2023-08-01 13:57:00,SystemResetWarning,0835.6,4.99,000.00,032.9,026.6,000.0,040.2,031.9,34.9,0000.0,0005.20,0008.47,0004.58
2023-08-01 13:58:00,SystemResetWarning,0835.6,4.99,000.00,033.1,027.0,000.0,040.3,032.0,34.5,0000.0,0005.31,0008.63,0004.68
2023-08-01 13:59:00,SystemResetWarning,0835.6,5.01,000.00,033.1,027.3,000.0,040.3,032.0,34.4,0000.0,0005.39,0008.58,0004.77
